Tracking 28052 objects as of 22-Sep-2023
HD Live streaming from Space Station
objects crossing your sky now

OBJECT A

Track OBJECT A now!
10-day predictions


NORAD ID: 53444
Int'l Code: 2022-098A
Perigee: 520.5 km
Apogee: 532.2 km
Inclination: 97.5 °
Period: 95.0 minutes
Semi major axis: 6897 km
RCS: Unknown
Launch date: August 10, 2022
Source: People's Republic of China (PRC)
Launch site: Taiyaun Space Center, China (TSC)
Your satellite tracking list
Your tracking list is empty




NASA's NSSDC Master Catalog

Two Line Element Set (TLE):
1 53444U 22098A   23265.05746830  .00011553  00000-0  61101-3 0  9999
2 53444  97.5273   0.3508 0008482 291.4210  68.6117 15.15593711 61613
Source of the keplerian elements: AFSPC